Location: Sungai Jaoh
(2.9167°N, 113.9167°E)
Time: 16:32:31
(UTC+00:00)

METEOR-M - Pass Details

Date: 30 November 2020
Orbit: 817 x 818 km, 98.5° (Epoch: 26 January)

Event Time Altitude Azimuth Distance (km) Brightness Sun altitude
Rises 20:35:02 0° 15° (NNE) 3,331 7.2 -23.9°
Reaches altitude 10° 20:37:22 10° 17° (NNE) 2,401 6.5 -23.3°
Maximum altitude 20:42:40 76° 102° (ESE) 842 4.2 -22.1°
Drops below altitude 10° 20:48:00 10° 188° (S) 2,409 6.7 -20.9°
Sets 20:50:21 0° 189° (S) 3,343 7.5 -20.3°
